Location: Street
(51.1247°N, 2.7429°W)
Time: 18:35:43
(UTC+00:00)

N. Korean satellite - Pass Details

Date: 03 November 2020
Orbit: 453 x 503 km, 97.2° (Epoch: 04 December)

Event Time Altitude Azimuth Distance (km) Brightness Sun altitude
Rises 05:26:30 0° 18° (NNE) 2,481 10.3 -16.2°
Reaches altitude 10° 05:28:38 10° 26° (NNE) 1,602 9.5 -15.8°
Maximum altitude 05:31:54 41° 99° (E) 673 7.8 -15.3°
Drops below altitude 10° 05:35:09 10° 171° (S) 1,595 9.4 -14.8°
Sets 05:37:16 0° 178° (S) 2,469 10.3 -14.5°
